Location: Arrien
(42.8963°N, 1.0429°E)
Time: 10:36:21
(UTC+00:00)

SL-16 R/B - Pass Details

Date: 21 March 2026
Orbit: 841 x 845 km, 71.0° (Epoch: 19 April)

Event Time Altitude Azimuth Distance (km) Brightness Sun altitude
Exits shadow 00:26:42 11° 3° (N) 2,393 5.1 -46.6°
Drops below altitude 10° 00:26:59 10° 5° (N) 2,479 5.2 -46.6°
Sets 00:29:48 0° 17° (NNE) 3,412 6.1 -46.5°
